Location: LDNL
(36.4545°S, 141.6685°E)
Time: 18:56:44
(UTC+10:00)

FALCONSAT 3 - Visible Passes

Search period start: 16 May 2022 00:00
Search period end: 26 May 2022 00:00
Orbit: 412 x 415 km, 35.4° (Epoch: 15 May)

Date Brightness Start Highest point End Pass type
(mag) Time Alt. Az. Time Alt. Az. Time Alt. Az.
17 May ? 06:28:48 10° N 06:29:57 11° NNE 06:31:05 10° NE visible
19 May ? 06:22:41 10° NNW 06:25:29 24° NNE 06:28:19 10° E visible
20 May ? 05:33:36 17° N 05:34:28 18° NNE 05:36:54 10° ENE visible
21 May ? 06:18:18 15° NW 06:20:50 45° NNE 06:24:06 10° E visible
22 May ? 05:30:00 34° NE 05:30:00 34° NE 05:32:45 10° E visible
23 May ? 06:14:17 27° WNW 06:15:56 68° N 06:19:20 10° E visible
24 May ? 05:25:38 36° ENE 05:25:38 36° ENE 05:27:51 10° E visible
24 May ? 06:58:54 10° W 07:02:18 73° N 07:05:42 10° E visible
25 May ? 06:09:36 38° W 06:10:45 76° N 06:14:09 10° E visible
